DW6366 Weather Reports


time (UTC)temp
C
wind
direction
speed
KPH
gust
KPH
rain 1hr
cm
rain 24hr
cm
rain mn
cm
humidity
%
barometer
mb
20260506203336 12 46 1.6 6.4 0.00 0.00 0.00 70 1012.5
20260506202321 12 9 0.0 3.2 0.00 0.00 0.00 70 1012.4
20260506201336 12 15 0.0 0.0 0.00 0.00 0.00 70 1012.3
20260506200342 12 14 0.0 4.8 0.00 0.00 0.00 69 1012.3
20260506195333 12 71 0.0 3.2 0.00 0.00 0.00 69 1012.2
20260506194344 12 65 1.6 9.7 0.00 0.00 0.00 68 1012.2
20260506193338 12 4 0.0 3.2 0.00 0.00 0.00 68 1012.0
20260506192332 12 55 0.0 3.2 0.00 0.00 0.00 67 1012.0
20260506191341 12 88 0.0 4.8 0.00 0.00 0.00 67 1011.8
20260506190332 12 70 1.6 3.2 0.00 0.00 0.00 66 1011.7
20260506185331 13 70 0.0 3.2 0.00 0.00 0.00 66 1011.5
20260506184334 13 70 1.6 4.8 0.00 0.00 0.00 65 1011.4
20260506183341 13 76 3.2 4.8 0.00 0.00 0.00 65 1011.3
20260506182348 13 73 1.6 4.8 0.00 0.00 0.00 64 1011.1
20260506181330 13 208 4.8 6.4 0.00 0.00 0.00 63 1011.0
20260506180330 13 70 3.2 8.0 0.00 0.00 0.00 63 1010.9
20260506175341 13 208 4.8 6.4 0.00 0.00 0.00 62 1010.8
20260506174348 13 208 4.8 8.0 0.00 0.00 0.00 62 1010.7
20260506173342 13 208 4.8 14.5 0.00 0.00 0.00 61 1010.6
20260506172324 13 208 8.0 14.5 0.00 0.00 0.00 59 1010.5
20260506171338 13 208 8.0 17.7 0.00 0.00 0.00 60 1010.4
20260506170331 13 87 4.8 16.1 0.00 0.00 0.00 60 1010.4
20260506165323 13 138 11.3 16.1 0.00 0.00 0.00 60 1010.3
20260506164322 13 108 11.3 24.1 0.00 0.00 0.00 60 1010.3
20260506163348 13 59 4.8 19.3 0.00 0.00 0.00 60 1010.3
20260506162402 13 234 9.7 19.3 0.00 0.00 0.00 59 1010.3
20260506161318 13 77 0.0 9.7 0.00 0.00 0.00 61 1010.3
20260506160322 13 60 6.4 16.1 0.00 0.00 0.00 61 1010.3
20260506155333 13 208 12.9 20.9 0.00 0.00 0.00 61 1010.3
20260506154323 13 339 1.6 19.3 0.00 0.00 0.00 60 1010.3
20260506153355 13 208 9.7 17.7 0.00 0.00 0.00 60 1010.3
20260506152324 14 81 9.7 24.1 0.00 0.00 0.00 60 1010.3
20260506151334 13 94 8.0 22.5 0.00 0.00 0.00 59 1010.3
20260506150330 14 82 11.3 20.9 0.00 0.00 0.00 59 1010.3
20260506145340 14 99 9.7 19.3 0.00 0.00 0.00 58 1010.2
20260506144334 15 102 8.0 17.7 0.00 0.00 0.00 53 1010.1
20260506143347 15 98 3.2 14.5 0.00 0.00 0.00 52 1010.1
20260506142348 15 46 6.4 19.3 0.00 0.00 0.00 55 1010.1
20260506141324 15 334 3.2 25.7 0.00 0.00 0.00 54 1010.0
20260506140335 15 57 14.5 27.4 0.00 0.00 0.00 56 1010.0
20260506135330 15 90 4.8 12.9 0.00 0.00 0.00 55 1010.0
20260506134321 15 73 4.8 19.3 0.00 0.00 0.00 59 1009.8
20260506133336 15 312 3.2 14.5 0.00 0.00 0.00 57 1009.9
20260506132331 15 28 4.8 11.3 0.00 0.00 0.00 59 1009.8
20260506131339 15 256 3.2 12.9 0.00 0.00 0.00 59 1009.7
20260506130348 16 20 3.2 14.5 0.00 0.00 0.00 57 1009.7
20260506125338 16 77 3.2 24.1 0.00 0.00 0.00 58 1009.6
20260506124349 16 13 3.2 16.1 0.00 0.00 0.00 59 1009.7
20260506123338 16 337 3.2 17.7 0.00 0.00 0.00 59 1009.5
20260506122336 16 208 12.9 22.5 0.00 0.00 0.00 59 1009.5
20260506121323 16 349 3.2 17.7 0.00 0.00 0.00 60 1009.5
20260506120325 15 18 3.2 9.7 0.00 0.00 0.00 61 1009.4
20260506115321 14 65 4.8 16.1 0.00 0.00 0.00 61 1009.4
20260506114339 14 58 3.2 14.5 0.00 0.00 0.00 66 1009.5
20260506113338 14 97 3.2 12.9 0.00 0.00 0.00 64 1009.5
20260506112320 14 323 3.2 9.7 0.00 0.00 0.00 64 1009.5
20260506111346 15 69 4.8 16.1 0.00 0.00 0.00 64 1009.4
20260506110322 15 349 4.8 17.7 0.00 0.00 0.00 59 1009.4
20260506105335 15 296 3.2 8.0 0.00 0.00 0.00 65 1009.4
20260506104328 16 23 6.4 12.9 0.00 0.00 0.00 62 1009.4
20260506103334 15 10 4.8 14.5 0.00 0.00 0.00 61 1009.4
20260506102331 15 5 4.8 12.9 0.00 0.00 0.00 61 1009.2
20260506101321 15 68 3.2 12.9 0.00 0.00 0.00 64 1009.3
20260506100334 15 23 3.2 8.0 0.00 0.00 0.00 68 1009.2
20260506095334 13 344 3.2 12.9 0.00 0.00 0.00 68 1009.2
20260506094327 13 334 1.6 9.7 0.00 0.00 0.00 68 1009.2
20260506093347 13 338 3.2 12.9 0.00 0.00 0.00 71 1009.2
20260506092325 13 16 3.2 9.7 0.00 0.00 0.00 72 1009.1
20260506091326 13 21 3.2 8.0 0.00 0.00 0.00 73 1009.1
20260506090333 13 348 3.2 14.5 0.00 0.00 0.00 74 1009.0
20260506085327 13 304 4.8 14.5 0.00 0.00 0.00 75 1009.1
20260506084337 13 36 4.8 14.5 0.00 0.00 0.00 75 1009.0
20260506083322 12 329 3.2 16.1 0.00 0.00 0.00 76 1008.9
20260506082324 12 293 3.2 17.7 0.00 0.00 0.00 76 1008.9
20260506081319 12 336 4.8 12.9 0.00 0.00 0.00 78 1009.0
20260506080336 12 55 3.2 16.1 0.00 0.00 0.00 79 1008.9
20260506073335 12 57 4.8 22.5 0.00 0.00 0.00 82 1008.8
20260506072351 11 157 1.6 6.4 0.00 0.00 0.00 82 1008.9
20260506071358 11 359 3.2 11.3 0.00 0.00 0.00 83 1008.8
20260506070324 11 319 1.6 8.0 0.00 0.00 0.00 84 1008.7
20260506062351 10 337 3.2 9.7 0.00 0.00 0.00 88 1008.6
20260506061344 10 63 3.2 14.5 0.00 0.00 0.00 88 1008.5
20260506060331 10 42 3.2 9.7 0.00 0.00 0.00 89 1008.6
20260506051322 9 355 0.0 4.8 0.00 0.00 0.00 90 1008.5
20260506050408 9 2 1.6 4.8 0.00 0.00 0.00 90 1008.6
20260506044343 10 5 1.6 6.4 0.00 0.00 0.00 89 1008.7
20260506043325 10 4 1.6 11.3 0.00 0.00 0.00 88 1008.7
20260506042342 10 2 1.6 8.0 0.00 0.00 0.00 87 1008.8
20260506041325 10 3 3.2 12.9 0.00 0.00 0.00 87 1008.8
20260506040324 10 302 1.6 11.3 0.00 0.00 0.00 86 1008.7
20260506035335 10 15 1.6 12.9 0.00 0.00 0.00 86 1008.7
20260506034327 10 354 3.2 8.0 0.00 0.00 0.00 86 1008.8
20260506033327 10 5 1.6 6.4 0.00 0.00 0.00 86 1008.8
20260506032353 10 355 1.6 8.0 0.00 0.00 0.00 86 1008.8
20260506031344 10 5 3.2 11.3 0.00 0.00 0.00 86 1008.8
20260506030343 9 5 1.6 8.0 0.00 0.00 0.00 86 1008.9
20260506025352 9 10 3.2 8.0 0.00 0.00 0.00 86 1009.0
20260506024334 9 10 1.6 8.0 0.00 0.00 0.00 86 1009.1
20260506023324 9 354 3.2 11.3 0.00 0.00 0.00 86 1009.0
20260506022323 9 338 3.2 9.7 0.00 0.00 0.00 86 1009.1
20260506021328 9 327 1.6 9.7 0.00 0.00 0.00 86 1009.1
20260506020322 9 343 1.6 11.3 0.00 0.00 0.00 86 1009.2
20260506015354 9 325 3.2 9.7 0.00 0.00 0.00 85 1009.2
20260506014329 9 37 1.6 4.8 0.00 0.00 0.00 84 1009.1
20260506013324 9 334 1.6 4.8 0.00 0.00 0.00 84 1009.2
20260506012331 9 8 1.6 12.9 0.00 0.00 0.00 83 1009.2
20260506011348 9 3 1.6 12.9 0.00 0.00 0.00 83 1009.3
20260506010321 9 332 1.6 12.9 0.00 0.00 0.00 83 1009.4
20260506005334 9 7 3.2 8.0 0.00 0.00 0.00 83 1009.4
20260506004322 9 327 1.6 11.3 0.00 0.00 0.00 82 1009.7
20260506003343 9 340 3.2 11.3 0.00 0.00 0.00 82 1009.7
20260506002341 9 358 1.6 9.7 0.00 0.00 0.00 82 1009.8
20260506001353 9 337 3.2 11.3 0.00 0.00 0.00 82 1009.8
20260506000338 9 44 1.6 4.8 0.00 0.00 0.00 82 1009.9
20260505235322 9 22 1.6 4.8 0.00 0.00 0.00 82 1009.9
20260505234321 9 344 0.0 8.0 0.00 0.00 0.00 82 1010.0
20260505233332 9 11 1.6 4.8 0.00 0.00 0.00 81 1010.0
20260505232325 9 347 1.6 8.0 0.00 0.00 0.00 81 1010.0
20260505231336 9 22 1.6 6.4 0.00 0.00 0.00 80 1010.1
20260505230325 9 344 1.6 8.0 0.00 0.00 0.00 80 1010.1
20260505225339 9 5 4.8 14.5 0.00 0.00 0.00 80 1010.2
20260505224323 9 14 1.6 4.8 0.00 0.00 0.00 79 1010.3
20260505223319 9 11 1.6 6.4 0.00 0.00 0.00 79 1010.3
20260505222336 10 350 0.0 8.0 0.00 0.00 0.00 79 1010.3
20260505221339 10 358 1.6 9.7 0.00 0.00 0.00 79 1010.3
20260505220406 10 350 3.2 12.9 0.00 0.00 0.00 78 1010.3
20260505215331 10 347 4.8 14.5 0.00 0.00 0.00 78 1010.4
20260505214320 10 355 3.2 12.9 0.00 0.00 0.00 78 1010.4
20260505213336 10 9 4.8 11.3 0.00 0.00 0.00 79 1010.5
20260505212327 10 334 3.2 12.9 0.00 0.00 0.00 79 1010.5
20260505211323 10 15 3.2 8.0 0.00 0.00 0.00 79 1010.6
20260505210328 10 27 4.8 12.9 0.00 0.00 0.00 79 1010.6
20260505205338 10 328 4.8 11.3 0.00 0.00 0.00 79 1010.7
20260505204337 11 324 3.2 8.0 0.00 0.00 0.00 79 1010.7